This demonstration page uses our WeatherBlox Daily Observations layout. Learn more.

39.01783, -85.05884

Hourly Observations for January 31, 2019

Temp ( °F °C ) Dew Point ( °F °C ) Humidity (%) Winds ( mph kmh ) Pressure ( in mb ) Visibility ( mi km ) Precip ( " mm )
12:52 am 00:52 Clear -2 -18.9 -12 -24.4 62 62 Calm 30.42 1030 10 16.09344 0 0
1:52 am 01:52 Clear -3 -19.4 -11 -23.9 68 68 SW 3 6 30.45 1031 10 16.09344 0 0
2:52 am 02:52 Clear -5 -20.6 -11 -23.9 75 75 SW 3 6 30.45 1031 10 16.09344 0 0
3:52 am 03:52 Clear -5 -20.6 -10 -23.3 79 79 Calm 30.45 1031 10 16.09344 0 0
4:52 am 04:52 Clear -4 -20 -10 -23.3 75 75 SW 3 6 30.45 1031 10 16.09344 0 0
5:52 am 05:52 Clear -4 -20 -11 -23.9 71 71 SSW 5 7 30.45 1031 10 16.09344 0 0
6:52 am 06:52 Clear -5 -20.6 -10 -23.3 79 79 SSW 5 7 30.45 1031 10 16.09344 0 0
7:52 am 07:52 Mostly Sunny -5 -20.6 -10 -23.3 79 79 SSW 3 6 30.48 1032 10 16.09344 0 0
8:52 am 08:52 Hazy -1 -18.3 -6 -21.1 79 79 S 3 6 30.48 1032 5 8.04672 0 0
9:52 am 09:52 Mostly Cloudy 3 -16.1 -7 -21.7 62 62 WSW 7 11 30.48 1032 10 16.09344 0 0
10:52 am 10:52 Mostly Cloudy 6 -14.4 -5 -20.6 60 60 W 6 9 30.48 1032 10 16.09344 0 0
11:52 am 11:52 Mostly Cloudy 8 -13.3 -6 -21.1 52 52 VRB 6 9 30.48 1032 10 16.09344 0 0
12:52 pm 12:52 Cloudy 10 -12.2 -4 -20 53 53 WSW 10 17 30.48 1032 10 16.09344 0 0
1:52 pm 13:52 Cloudy 11 -11.7 -4 -20 51 51 S 5 7 30.45 1031 10 16.09344 0 0
2:52 pm 14:52 Cloudy 14 -10 -2 -18.9 49 49 VRB 5 7 30.42 1030 10 16.09344 0 0
3:52 pm 15:52 Cloudy 14 -10 -1 -18.3 51 51 S 8 13 30.42 1030 10 16.09344 0 0
4:52 pm 16:52 Cloudy 15 -9.4 0 -17.8 51 51 S 7 11 30.42 1030 10 16.09344 0 0
5:52 pm 17:52 Cloudy 15 -9.4 1 -17.2 53 53 SSE 6 9 30.39 1029 10 16.09344 0 0
6:52 pm 18:52 Cloudy 16 -8.9 3 -16.1 56 56 S 3 6 30.39 1029 10 16.09344 0 0
7:52 pm 19:52 Cloudy with Light Snow 16 -8.9 3 -16.1 56 56 ESE 6 9 30.36 1028 8 12.874752 0.001 0.001
8:52 pm 20:52 Cloudy 16 -8.9 5 -15 62 62 ESE 6 9 30.33 1027 10 16.09344 0.001 0.001
9:52 pm 21:52 Cloudy with Light Snow 17 -8.3 6 -14.4 62 62 E 7 11 30.33 1027 9 14.484096 0.001 0.001
10:52 pm 22:52 Cloudy 17 -8.3 7 -13.9 64 64 E 12 19 30.3 1026 10 16.09344 0.001 0.001
11:52 pm 23:52 Cloudy 17 -8.3 8 -13.3 68 68 ENE 9 15 30.3 1026 10 16.09344 0 0

Powered by AerisWeather